Location: Laas
(43.4693°N, 0.3073°E)
Time: 14:46:48
(UTC+00:00)

SL-4 R/B - Pass Details

Date: 25 October 2020
Orbit: 427 x 665 km, 51.6° (Epoch: 23 November)

Event Time Altitude Azimuth Distance (km) Brightness Sun altitude
Rises 17:53:26 0° 284° (WNW) 2,423 6.8 -10.4°
Reaches altitude 10° 17:55:48 10° 299° (WNW) 1,579 5.2 -10.9°
Maximum altitude 17:58:42 23° 354° (N) 1,031 3.4 -11.4°
Enters shadow 18:01:18 12° 45° (NE) 1,524 3.8 -11.9°
